Location: Rehoboth Beach
(38.7438°N, 75.1341°W)
Time: 04:29:45
(UTC-04:00)

Cosmos 1452 Rocket - Visible Passes

Search period start: 26 October 2014 00:00
Search period end: 04 November 2014 23:00
Orbit: 768 x 776 km, 74.1° (Epoch: 25 October)

Date Brightness Start Highest point End Pass type
(mag) Time Alt. Az. Time Alt. Az. Time Alt. Az.
28 Oct 6.1 06:30:38 10° NNE 06:34:22 19° ENE 06:38:05 10° ESE visible
29 Oct 6.4 05:56:19 10° NNE 05:58:14 12° NE 06:00:09 10° ENE visible
31 Oct 5.3 06:24:42 10° N 06:29:27 33° ENE 06:34:09 10° SE visible
01 Nov 5.9 05:49:32 10° NNE 05:53:27 21° ENE 05:57:20 10° ESE visible
01 Nov 5.8 20:25:03 10° S 20:25:26 12° S 20:25:26 12° S visible
02 Nov 6.3 04:15:00 10° NNE 04:17:20 13° NE 04:19:39 10° E visible
02 Nov 3.5 05:54:53 10° NNW 06:00:10 81° WSW 06:05:23 10° SSE visible
02 Nov 5.0 18:49:47 10° SSE 18:51:50 22° SSE 18:51:50 22° SSE visible
03 Nov 4.1 05:19:10 10° N 05:24:23 60° ENE 05:29:32 10° SSE visible
03 Nov 4.7 18:15:02 10° SSE 18:18:13 22° ESE 18:18:13 22° ESE visible
03 Nov 5.3 19:55:56 10° SW 19:58:40 27° WSW 19:58:40 27° WSW visible
04 Nov 5.0 04:43:40 10° N 04:48:30 36° ENE 04:53:17 10° SE visible
04 Nov 5.2 17:41:18 10° ESE 17:43:34 13° E 17:44:33 12° E visible
04 Nov 3.7 19:19:47 10° SSW 19:25:00 69° WNW 19:25:00 69° WNW visible
